Time,TemperatureF,DewpointF,PressureIn,WindDirection,WindDirectionDegrees,WindSpeedMPH,WindSpeedGustMPH,Humidity,HourlyPrecipIn,Conditions,Clouds,dailyrainin,SolarRadiationWatts/m^2,SoftwareType,DateUTC
2013-05-05 00:14:00,27.3,15.0,29.91,ESE,123,11.0,24.0,61,0.00,,,0.00,0,weatherlink.com 1.10,2013-05-05 06:14:00,
2013-05-05 00:29:00,26.8,15.0,29.91,ESE,103,10.0,18.0,61,0.00,,,0.00,0,weatherlink.com 1.10,2013-05-05 06:29:00,
2013-05-05 00:44:00,26.3,14.0,29.91,ESE,109,9.0,16.0,61,0.00,,,0.00,0,weatherlink.com 1.10,2013-05-05 06:44:00,
2013-05-05 00:59:00,26.0,14.0,29.91,ESE,106,10.0,17.0,61,0.00,,,0.00,0,weatherlink.com 1.10,2013-05-05 06:59:00,
2013-05-05 01:14:00,25.7,14.0,29.90,ESE,117,13.0,22.0,62,0.00,,,0.00,0,weatherlink.com 1.10,2013-05-05 07:14:00,
2013-05-05 01:29:00,25.3,14.0,29.90,SE,134,9.0,17.0,63,0.00,,,0.00,0,weatherlink.com 1.10,2013-05-05 07:29:00,
2013-05-05 01:44:00,25.1,14.0,29.90,ESE,119,11.0,17.0,64,0.00,,,0.00,0,weatherlink.com 1.10,2013-05-05 07:44:00,
2013-05-05 01:59:00,24.6,14.0,29.89,ESE,108,7.0,13.0,65,0.00,,,0.00,0,weatherlink.com 1.10,2013-05-05 07:59:00,
2013-05-05 02:14:00,24.3,14.0,29.89,East,101,14.0,14.0,66,0.00,,,0.00,0,weatherlink.com 1.10,2013-05-05 08:14:00,
2013-05-05 02:30:00,24.0,14.0,29.89,ESE,107,7.0,13.0,66,0.00,,,0.00,0,weatherlink.com 1.10,2013-05-05 08:30:00,
2013-05-05 02:45:00,23.9,14.0,29.88,ESE,105,7.0,13.0,66,0.00,,,0.00,0,weatherlink.com 1.10,2013-05-05 08:45:00,
2013-05-05 03:00:00,23.6,14.0,29.88,ESE,114,9.0,13.0,67,0.00,,,0.00,0,weatherlink.com 1.10,2013-05-05 09:00:00,
2013-05-05 03:15:00,23.6,14.0,29.88,East,101,8.0,11.0,66,0.00,,,0.00,0,weatherlink.com 1.10,2013-05-05 09:15:00,
2013-05-05 03:30:00,23.4,14.0,29.88,ESE,119,5.0,9.0,66,0.00,,,0.00,0,weatherlink.com 1.10,2013-05-05 09:30:00,
2013-05-05 03:45:00,23.2,13.0,29.88,ESE,113,5.0,10.0,65,0.00,,,0.00,0,weatherlink.com 1.10,2013-05-05 09:45:00,
2013-05-05 04:00:00,23.1,13.0,29.88,SE,127,5.0,9.0,64,0.00,,,0.00,0,weatherlink.com 1.10,2013-05-05 10:00:00,
2013-05-05 04:15:00,22.8,13.0,29.88,East,93,5.0,5.0,65,0.00,,,0.00,0,weatherlink.com 1.10,2013-05-05 10:15:00,
2013-05-05 04:30:00,22.0,13.0,29.87,East,91,5.0,6.0,68,0.00,,,0.00,0,weatherlink.com 1.10,2013-05-05 10:30:00,
2013-05-05 04:45:00,22.0,13.0,29.87,SE,130,6.0,7.0,67,0.00,,,0.00,0,weatherlink.com 1.10,2013-05-05 10:45:00,
2013-05-05 05:00:00,22.3,12.0,29.87,SE,124,0.0,4.0,65,0.00,,,0.00,0,weatherlink.com 1.10,2013-05-05 11:00:00,
2013-05-05 05:15:00,22.4,12.0,29.86,SE,124,2.0,3.0,65,0.00,,,0.00,0,weatherlink.com 1.10,2013-05-05 11:15:00,
2013-05-05 05:30:00,22.8,12.0,29.87,SE,124,0.0,2.0,64,0.00,,,0.00,0,weatherlink.com 1.10,2013-05-05 11:30:00,
2013-05-05 05:45:00,23.3,12.0,29.87,SE,124,0.0,2.0,63,0.00,,,0.00,0,weatherlink.com 1.10,2013-05-05 11:45:00,
2013-05-05 06:00:00,23.7,12.0,29.87,SE,124,0.0,2.0,62,0.00,,,0.00,0,weatherlink.com 1.10,2013-05-05 12:00:00,
2013-05-05 06:15:00,23.1,13.0,29.86,SE,124,2.0,2.0,64,0.00,,,0.00,11,weatherlink.com 1.10,2013-05-05 12:15:00,
2013-05-05 06:30:00,23.3,13.0,29.87,SE,124,0.0,1.0,64,0.00,,,0.00,26,weatherlink.com 1.10,2013-05-05 12:30:00,
2013-05-05 06:45:00,24.3,13.0,29.88,SE,124,0.0,0.0,63,0.00,,,0.00,51,weatherlink.com 1.10,2013-05-05 12:45:00,
2013-05-05 07:00:00,25.4,15.0,29.88,SE,124,0.0,0.0,65,0.00,,,0.00,72,weatherlink.com 1.10,2013-05-05 13:00:00,
2013-05-05 07:15:00,26.7,16.0,29.88,SE,124,0.0,2.0,64,0.00,,,0.00,90,weatherlink.com 1.10,2013-05-05 13:15:00,
2013-05-05 07:30:00,27.2,15.0,29.88,SE,124,0.0,0.0,61,0.00,,,0.00,118,weatherlink.com 1.10,2013-05-05 13:30:00,
2013-05-05 07:45:00,27.7,16.0,29.89,SE,124,0.0,2.0,63,0.00,,,0.00,163,weatherlink.com 1.10,2013-05-05 13:45:00,
2013-05-05 08:00:00,29.4,16.0,29.89,SE,124,0.0,2.0,57,0.00,,,0.00,200,weatherlink.com 1.10,2013-05-05 14:00:00,
2013-05-05 08:15:00,31.0,16.0,29.89,ESE,115,1.0,3.0,55,0.00,,,0.00,230,weatherlink.com 1.10,2013-05-05 14:15:00,
2013-05-05 08:30:00,30.9,16.0,29.88,ENE,59,3.0,4.0,54,0.00,,,0.00,264,weatherlink.com 1.10,2013-05-05 14:30:00,
2013-05-05 08:45:00,31.8,17.0,29.89,SSE,155,0.0,3.0,54,0.00,,,0.00,258,weatherlink.com 1.10,2013-05-05 14:45:00,
2013-05-05 09:00:00,34.2,18.0,29.90,West,279,0.0,4.0,52,0.00,,,0.00,316,weatherlink.com 1.10,2013-05-05 15:00:00,
2013-05-05 09:16:00,36.3,19.0,29.90,WNW,286,1.0,4.0,49,0.00,,,0.00,411,weatherlink.com 1.10,2013-05-05 15:16:00,
2013-05-05 09:31:00,36.8,18.0,29.89,WNW,300,0.0,3.0,47,0.00,,,0.00,376,weatherlink.com 1.10,2013-05-05 15:31:00,
2013-05-05 09:46:00,38.5,18.0,29.89,NW,306,0.0,3.0,43,0.00,,,0.00,383,weatherlink.com 1.10,2013-05-05 15:46:00,
2013-05-05 10:01:00,39.5,17.0,29.89,NW,304,3.0,4.0,41,0.00,,,0.00,390,weatherlink.com 1.10,2013-05-05 16:01:00,
2013-05-05 10:16:00,39.9,16.0,29.89,South,188,1.0,5.0,38,0.00,,,0.00,468,weatherlink.com 1.10,2013-05-05 16:16:00,
2013-05-05 10:31:00,41.1,15.0,29.89,South,189,9.0,9.0,35,0.00,,,0.00,469,weatherlink.com 1.10,2013-05-05 16:31:00,
2013-05-05 10:46:00,41.2,15.0,29.89,South,172,2.0,8.0,35,0.00,,,0.00,373,weatherlink.com 1.10,2013-05-05 16:46:00,
2013-05-05 11:01:00,41.0,15.0,29.89,South,183,1.0,7.0,35,0.00,,,0.00,364,weatherlink.com 1.10,2013-05-05 17:01:00,
2013-05-05 11:16:00,40.9,16.0,29.89,SSE,166,4.0,9.0,36,0.00,,,0.00,390,weatherlink.com 1.10,2013-05-05 17:16:00,
2013-05-05 11:31:00,42.4,17.0,29.88,ESE,110,7.0,11.0,36,0.00,,,0.00,603,weatherlink.com 1.10,2013-05-05 17:31:00,
2013-05-05 11:46:00,43.3,17.0,29.88,SSE,157,2.0,14.0,34,0.00,,,0.00,441,weatherlink.com 1.10,2013-05-05 17:46:00,
2013-05-05 12:01:00,43.4,15.0,29.88,SSW,202,4.0,10.0,32,0.00,,,0.00,371,weatherlink.com 1.10,2013-05-05 18:01:00,
2013-05-05 12:16:00,43.6,16.0,29.87,NW,305,1.0,9.0,33,0.00,,,0.00,330,weatherlink.com 1.10,2013-05-05 18:16:00,
2013-05-05 12:31:00,43.5,15.0,29.87,SSE,165,3.0,9.0,31,0.00,,,0.00,304,weatherlink.com 1.10,2013-05-05 18:31:00,
2013-05-05 12:46:00,43.2,15.0,29.87,South,172,3.0,8.0,32,0.00,,,0.00,262,weatherlink.com 1.10,2013-05-05 18:46:00,
2013-05-05 13:01:00,42.2,14.0,29.87,SSE,167,4.0,9.0,32,0.00,,,0.00,230,weatherlink.com 1.10,2013-05-05 19:01:00,
2013-05-05 13:16:00,42.2,16.0,29.86,SW,231,3.0,9.0,34,0.00,,,0.00,302,weatherlink.com 1.10,2013-05-05 19:16:00,
2013-05-05 13:31:00,43.2,16.0,29.86,SSE,150,4.0,7.0,33,0.00,,,0.00,288,weatherlink.com 1.10,2013-05-05 19:31:00,
2013-05-05 13:46:00,44.0,16.0,29.86,South,188,1.0,8.0,33,0.00,,,0.00,323,weatherlink.com 1.10,2013-05-05 19:46:00,
2013-05-05 14:01:00,44.7,16.0,29.85,SSW,207,3.0,9.0,31,0.00,,,0.00,262,weatherlink.com 1.10,2013-05-05 20:01:00,
2013-05-05 14:16:00,45.3,17.0,29.85,SW,222,4.0,7.0,32,0.00,,,0.00,334,weatherlink.com 1.10,2013-05-05 20:16:00,
2013-05-05 14:31:00,46.0,16.0,29.85,WSW,248,3.0,9.0,30,0.00,,,0.00,322,weatherlink.com 1.10,2013-05-05 20:31:00,
2013-05-05 14:46:00,47.0,17.0,29.84,West,279,3.0,9.0,30,0.00,,,0.00,413,weatherlink.com 1.10,2013-05-05 20:46:00,
2013-05-05 15:01:00,48.3,17.0,29.84,WNW,295,2.0,10.0,29,0.00,,,0.00,434,weatherlink.com 1.10,2013-05-05 21:01:00,
2013-05-05 15:16:00,49.2,17.0,29.83,SSW,203,3.0,12.0,28,0.00,,,0.00,680,weatherlink.com 1.10,2013-05-05 21:16:00,
2013-05-05 15:31:00,49.6,18.0,29.82,SW,236,5.0,10.0,28,0.00,,,0.00,362,weatherlink.com 1.10,2013-05-05 21:31:00,
2013-05-05 15:46:00,48.9,17.0,29.82,SSE,162,3.0,6.0,28,0.00,,,0.00,290,weatherlink.com 1.10,2013-05-05 21:46:00,
2013-05-05 16:01:00,47.9,17.0,29.82,West,259,3.0,7.0,29,0.00,,,0.00,515,weatherlink.com 1.10,2013-05-05 22:01:00,
2013-05-05 16:17:00,50.8,18.0,29.81,West,265,2.0,11.0,27,0.00,,,0.00,244,weatherlink.com 1.10,2013-05-05 22:17:00,
2013-05-05 16:32:00,48.8,18.0,29.81,SW,220,1.0,10.0,29,0.00,,,0.00,209,weatherlink.com 1.10,2013-05-05 22:32:00,
2013-05-05 16:47:00,48.4,19.0,29.81,SE,128,12.0,12.0,31,0.00,,,0.00,610,weatherlink.com 1.10,2013-05-05 22:47:00,
2013-05-05 17:02:00,48.8,19.0,29.81,SW,236,3.0,10.0,31,0.00,,,0.00,559,weatherlink.com 1.10,2013-05-05 23:02:00,
2013-05-05 17:17:00,50.9,20.0,29.81,WNW,293,6.0,8.0,29,0.00,,,0.00,536,weatherlink.com 1.10,2013-05-05 23:17:00,
2013-05-05 17:32:00,52.1,21.0,29.81,West,262,4.0,9.0,30,0.00,,,0.00,517,weatherlink.com 1.10,2013-05-05 23:32:00,
2013-05-05 17:47:00,50.4,20.0,29.81,NW,315,1.0,12.0,30,0.00,,,0.00,381,weatherlink.com 1.10,2013-05-05 23:47:00,
2013-05-05 18:02:00,48.3,21.0,29.81,SSE,158,6.0,14.0,34,0.00,,,0.00,292,weatherlink.com 1.10,2013-05-06 00:02:00,
2013-05-05 18:17:00,46.2,22.0,29.82,NW,320,3.0,12.0,39,0.00,,,0.00,125,weatherlink.com 1.10,2013-05-06 00:17:00,
2013-05-05 18:32:00,43.9,23.0,29.82,SSW,192,1.0,9.0,43,0.00,,,0.00,83,weatherlink.com 1.10,2013-05-06 00:32:00,
2013-05-05 18:47:00,42.8,23.0,29.82,West,277,2.0,9.0,46,0.00,,,0.00,67,weatherlink.com 1.10,2013-05-06 00:47:00,
2013-05-05 19:02:00,42.5,23.0,29.82,West,259,1.0,9.0,47,0.00,,,0.00,40,weatherlink.com 1.10,2013-05-06 01:02:00,
2013-05-05 19:17:00,42.1,23.0,29.82,West,280,1.0,8.0,46,0.00,,,0.00,19,weatherlink.com 1.10,2013-05-06 01:17:00,
2013-05-05 19:32:00,41.8,23.0,29.82,West,267,0.0,4.0,47,0.00,,,0.00,7,weatherlink.com 1.10,2013-05-06 01:32:00,
2013-05-05 19:47:00,41.3,23.0,29.82,SSW,198,3.0,5.0,48,0.00,,,0.00,0,weatherlink.com 1.10,2013-05-06 01:47:00,
2013-05-05 20:02:00,40.4,23.0,29.82,SSE,167,0.0,5.0,51,0.00,,,0.00,0,weatherlink.com 1.10,2013-05-06 02:02:00,
2013-05-05 20:17:00,39.8,24.0,29.82,South,181,2.0,5.0,53,0.00,,,0.00,0,weatherlink.com 1.10,2013-05-06 02:17:00,
2013-05-05 20:32:00,39.7,24.0,29.82,SSE,148,4.0,5.0,53,0.00,,,0.00,0,weatherlink.com 1.10,2013-05-06 02:32:00,
2013-05-05 20:47:00,39.8,19.0,29.82,South,185,2.0,8.0,44,0.00,,,0.00,0,weatherlink.com 1.10,2013-05-06 02:47:00,
2013-05-05 21:02:00,40.7,19.0,29.82,SSW,213,0.0,13.0,41,0.00,,,0.00,0,weatherlink.com 1.10,2013-05-06 03:02:00,
2013-05-05 21:17:00,40.9,19.0,29.81,SE,145,4.0,7.0,41,0.00,,,0.00,0,weatherlink.com 1.10,2013-05-06 03:17:00,
2013-05-05 21:32:00,40.3,20.0,29.82,SE,139,3.0,6.0,44,0.00,,,0.00,0,weatherlink.com 1.10,2013-05-06 03:32:00,
2013-05-05 21:47:00,38.5,21.0,29.82,East,98,6.0,9.0,49,0.00,,,0.00,0,weatherlink.com 1.10,2013-05-06 03:47:00,
2013-05-05 22:02:00,34.3,18.0,29.82,ESE,115,8.0,12.0,52,0.00,,,0.00,0,weatherlink.com 1.10,2013-05-06 04:02:00,
2013-05-05 22:17:00,32.6,17.0,29.82,East,101,9.0,12.0,54,0.00,,,0.00,0,weatherlink.com 1.10,2013-05-06 04:17:00,
2013-05-05 22:32:00,32.4,18.0,29.82,ESE,103,11.0,21.0,55,0.00,,,0.00,0,weatherlink.com 1.10,2013-05-06 04:32:00,
2013-05-05 22:47:00,31.8,16.0,29.82,ESE,113,14.0,18.0,53,0.00,,,0.00,0,weatherlink.com 1.10,2013-05-06 04:47:00,
2013-05-05 23:02:00,30.0,16.0,29.82,East,90,16.0,17.0,56,0.00,,,0.00,0,weatherlink.com 1.10,2013-05-06 05:02:00,
2013-05-05 23:17:00,30.0,15.0,29.82,East,98,15.0,15.0,54,0.00,,,0.00,0,weatherlink.com 1.10,2013-05-06 05:17:00,
2013-05-05 23:32:00,29.5,15.0,29.82,ESE,102,10.0,14.0,55,0.00,,,0.00,0,weatherlink.com 1.10,2013-05-06 05:32:00,
2013-05-05 23:47:00,29.5,15.0,29.82,ESE,119,8.0,11.0,56,0.00,,,0.00,0,weatherlink.com 1.10,2013-05-06 05:47:00,